DateTimeUTC,F1_A11,F1_S11,BsB_S11,BsG_S11,BsR_S11,BbsB_S11,BbsG_S11,BbsR_S11,BaB_A11,BaG_A11,BaR_A11,Tu_S11,T_S11,Uu_S11,U_S11,P_S11,T1_A11
2021-09-10T01:00:00Z,00000200,21000000,,,,,,,-000.05,-000.04,-000.08,18.2,25.5,,00.0,0661.6,31.0
2021-09-10T01:01:00Z,00000200,21000000,,,,,,,0000.24,0000.07,0000.07,18.2,25.6,,00.0,0661.6,31.0
2021-09-10T01:02:00Z,00000200,21000000,,,,,,,-000.09,-000.06,0000.08,18.3,25.6,,00.0,0661.6,31.1
2021-09-10T01:03:00Z,00000200,61000000,,,,,,,-000.08,0000.37,-000.14,18.3,25.6,,00.0,0661.6,31.1
2021-09-10T01:04:00Z,00000200,41000000,0000.86,0000.55,0000.40,0000.05,-000.14,0000.27,0000.69,0000.40,0000.47,18.8,25.6,,00.0,0662.5,31.1
2021-09-10T01:05:00Z,00000200,01000000,0000.65,0000.64,-000.03,0000.30,0000.00,0000.08,0001.59,0001.53,0001.44,18.9,25.6,,00.0,0662.6,31.1
2021-09-10T01:06:00Z,00000200,01000000,0001.30,0000.86,0000.34,0000.07,0000.14,0000.12,0009.19,0008.06,0006.37,19.0,25.6,,00.0,0662.6,31.1
2021-09-10T01:07:00Z,00000200,01000000,0000.90,0000.99,0000.72,0000.93,0000.08,0000.10,0014.19,0012.63,0009.45,18.9,25.5,,00.0,0662.6,31.1
2021-09-10T01:08:00Z,00000200,01000000,0000.95,0000.63,0000.23,0000.70,-000.08,0000.17,0004.70,0004.69,0003.20,18.8,25.5,,00.0,0662.6,31.0
2021-09-10T01:09:00Z,00000200,01000000,0000.55,0000.34,0000.33,0000.24,0000.01,0000.07,0000.79,0000.47,0000.52,18.7,25.4,,00.0,0662.5,31.0
2021-09-10T01:10:00Z,00000200,01000000,0000.47,0000.85,0000.48,0000.69,-000.14,-000.17,0000.13,0000.13,0000.16,18.7,25.4,,00.0,0662.5,31.0
2021-09-10T01:11:00Z,00000200,01000000,0001.17,0000.49,0000.17,0000.59,0000.10,0000.02,0001.69,0001.47,0001.00,18.6,25.3,,00.0,0662.5,31.0
2021-09-10T01:12:00Z,00000200,01000000,0001.51,0000.88,0000.23,0000.19,0000.06,-000.24,0010.86,0009.81,0007.32,18.5,25.3,,00.0,0662.5,31.0
2021-09-10T01:13:00Z,00000200,01000000,0002.07,0001.47,0000.20,0000.83,0000.09,0000.08,0022.74,0020.83,0015.78,18.5,25.3,,00.0,0662.5,31.0
2021-09-10T01:14:00Z,00000200,01000000,0002.10,0001.07,0000.37,0001.30,0000.12,0000.08,0028.24,0025.24,0019.58,18.6,25.3,,00.0,0662.5,31.0
2021-09-10T01:15:00Z,00000200,01000000,0001.43,0001.53,0000.48,0000.28,0000.21,-000.13,0022.15,0020.39,0015.72,18.6,25.3,,00.0,0662.6,31.0
2021-09-10T01:16:00Z,00000200,01000000,0002.17,0001.36,0000.65,0000.32,0000.30,0000.23,0023.87,0021.57,0016.40,18.7,25.3,,00.0,0662.6,31.0
2021-09-10T01:17:00Z,00000200,01000000,0001.79,0001.28,0000.57,0000.67,0000.24,-000.29,0030.69,0027.44,0020.92,18.7,25.4,,00.0,0662.6,31.0
2021-09-10T01:18:00Z,00000200,01000000,0002.05,0001.40,0000.46,0000.54,0000.42,0000.29,0030.10,0027.26,0020.83,18.8,25.4,,00.0,0662.6,31.0
2021-09-10T01:19:00Z,00000200,01000000,0001.27,0000.99,0000.59,0000.08,0000.36,0000.25,0028.90,0026.59,0020.30,18.9,25.5,,00.0,0662.6,31.1
2021-09-10T01:20:00Z,00000200,01000000,0001.65,0001.73,0001.03,0000.81,0000.30,0000.19,0029.12,0025.98,0019.81,18.9,25.5,,00.0,0662.6,31.1
2021-09-10T01:21:00Z,00000200,01000000,0002.13,0001.55,0000.74,0000.69,0000.44,0000.26,0027.80,0025.30,0019.47,18.9,25.5,,00.0,0662.6,31.0
2021-09-10T01:22:00Z,00000200,01000000,0001.60,0001.31,0000.79,0000.41,0000.38,0000.45,0025.30,0022.52,0017.29,18.8,25.4,,00.0,0662.6,31.0
2021-09-10T01:23:00Z,00000200,01000000,0001.53,0001.07,0000.55,0001.07,0000.28,-000.16,0017.73,0016.12,0012.30,18.7,25.4,,00.0,0662.6,31.0
2021-09-10T01:24:00Z,00000200,01000000,0002.34,0001.08,0000.48,0000.60,0000.27,-000.06,0019.32,0017.52,0013.33,18.6,25.3,,00.0,0662.6,31.0
2021-09-10T01:25:00Z,00000200,01000000,0002.25,0001.27,0000.24,0000.61,0000.38,-000.34,0021.03,0018.81,0014.55,18.5,25.3,,00.0,0662.6,31.0
2021-09-10T01:26:00Z,00000200,01000000,0001.48,0001.03,0000.79,0000.19,0000.18,0000.24,0021.90,0019.43,0014.93,18.5,25.2,,00.0,0662.6,31.0
2021-09-10T01:27:00Z,00000200,01000000,0001.58,0000.99,0000.42,0000.69,0000.31,0000.02,0018.80,0017.45,0012.94,18.4,25.2,,00.0,0662.5,31.0
2021-09-10T01:28:00Z,00000200,01000000,0001.74,0001.01,0000.46,0000.96,0000.38,0000.14,0023.11,0020.81,0016.25,18.4,25.2,,00.0,0662.6,31.0
2021-09-10T01:29:00Z,00000200,01000000,0001.71,0001.42,0000.34,0000.40,0000.19,-000.34,0022.68,0021.07,0015.99,18.5,25.2,,00.0,0662.6,31.0
2021-09-10T01:30:00Z,00000200,01000000,0002.11,0000.98,0000.58,0000.45,0000.27,0000.15,0024.08,0021.53,0016.52,18.5,25.2,,00.0,0662.6,31.0
2021-09-10T01:31:00Z,00000200,01000000,0001.45,0001.11,0000.87,0000.62,0000.38,0000.02,0021.84,0019.96,0015.42,18.6,25.2,,00.0,0662.6,31.0
2021-09-10T01:32:00Z,00000200,01000000,0001.60,0001.49,0000.89,0000.96,0000.39,0000.25,0021.03,0018.73,0014.25,18.7,25.3,,00.0,0662.6,31.0
2021-09-10T01:33:00Z,00000200,01000000,0000.52,0000.89,0000.38,0000.89,0000.17,0000.03,0017.33,0015.94,0012.23,18.7,25.3,,00.0,0662.6,31.0
2021-09-10T01:34:00Z,00000200,01000000,0000.90,0001.12,0000.47,0000.16,0000.25,0000.24,0010.26,0009.50,0007.38,18.8,25.4,,00.0,0662.6,31.0
2021-09-10T01:35:00Z,00000200,01000000,0001.20,0000.28,0000.00,0000.56,-000.21,-000.34,0004.49,0003.73,0002.60,18.9,25.4,,00.0,0662.6,31.1
2021-09-10T01:36:00Z,00000200,01000000,0000.94,0000.39,0000.26,0000.69,0000.10,-000.00,0000.61,0001.18,0000.97,18.9,25.4,,00.0,0662.6,31.1
2021-09-10T01:37:00Z,00000200,01000000,0000.26,0000.81,0000.28,0000.14,-000.01,0000.36,0000.63,0000.37,0000.73,19.0,25.5,,00.0,0662.6,31.1
2021-09-10T01:38:00Z,00000200,01000000,0001.07,0000.50,0000.09,0000.35,-000.13,-000.20,0000.73,0000.24,-000.11,19.0,25.5,,00.0,0662.6,31.1
2021-09-10T01:39:00Z,00000200,01000000,0000.90,0000.54,0000.16,-000.48,-000.21,-000.09,0000.01,0000.22,-000.02,18.9,25.5,,00.0,0662.6,31.0
2021-09-10T01:40:00Z,00000200,01000000,0000.78,0000.32,0000.25,0000.17,0000.20,0000.30,-000.03,0000.06,-000.02,18.8,25.4,,00.0,0662.6,31.0
2021-09-10T01:41:00Z,00000200,01000000,0000.92,0000.37,-000.09,0000.18,0000.07,-000.22,0000.49,0000.10,0000.24,18.8,25.4,,00.0,0662.6,31.0
2021-09-10T01:42:00Z,00000200,01000000,0000.35,0000.34,0000.28,0000.35,0000.33,0000.05,0000.49,0000.54,0000.15,18.7,25.3,,00.0,0662.6,31.0
2021-09-10T01:43:00Z,00000200,01000000,-000.00,0000.41,0000.11,0000.06,0000.24,0000.30,0000.43,0000.71,0000.39,18.7,25.3,,00.0,0662.6,31.0
2021-09-10T01:44:00Z,00000200,01000000,0000.61,0000.63,0000.03,-000.14,-000.07,0000.12,0000.45,0000.56,0000.55,18.7,25.3,,00.0,0662.6,31.0
2021-09-10T01:45:00Z,00000200,01000000,0000.55,0000.66,0000.41,0000.20,0000.04,0000.03,0000.65,0000.17,0000.30,18.8,25.4,,00.0,0662.6,31.0
2021-09-10T01:46:00Z,00000200,01000000,0001.09,0000.12,-000.08,-000.08,0000.11,-000.34,0000.20,0000.22,0000.43,18.8,25.4,,00.0,0662.6,31.0
2021-09-10T01:47:00Z,00000200,01000000,0000.43,0000.66,0000.10,0000.00,0000.09,-000.18,0000.29,0000.44,0000.27,18.9,25.4,,00.0,0662.6,31.0
2021-09-10T01:48:00Z,00000200,01000000,0001.45,0000.42,0000.08,0000.21,0000.09,0000.24,0000.53,0000.57,0000.17,19.0,25.5,,00.0,0662.6,31.1
2021-09-10T01:49:00Z,00000200,01000000,0000.41,0000.51,0000.05,0000.29,0000.21,-000.06,0000.32,-000.00,0000.22,19.0,25.5,,00.0,0662.6,31.1
2021-09-10T01:50:00Z,00000200,01000000,-000.13,0000.44,0000.39,0000.31,0000.01,0000.15,0000.16,0000.59,0000.20,19.1,25.5,,00.0,0662.6,31.1
2021-09-10T01:51:00Z,00000200,01000000,0000.30,0000.54,0000.26,-000.03,0000.07,0000.07,0000.16,-000.08,0000.05,19.0,25.5,,00.0,0662.6,31.1
2021-09-10T01:52:00Z,00000200,01000000,0000.42,0000.15,0000.32,-000.02,0000.19,0000.25,0000.07,-000.51,-000.10,19.0,25.5,,00.0,0662.6,31.0
2021-09-10T01:53:00Z,00000200,01000000,0000.82,0000.21,0000.10,0000.41,-000.11,0000.14,-000.19,0000.40,-000.24,18.9,25.4,,00.0,0662.6,31.0
2021-09-10T01:54:00Z,00000200,01000000,0000.78,0000.45,0000.08,0000.23,-000.05,0000.03,0000.48,-000.04,0000.02,18.8,25.4,,00.0,0662.6,31.0
2021-09-10T01:55:00Z,00000200,01000000,0000.97,0000.24,0000.15,0001.00,0000.02,-000.18,-000.44,-000.11,0000.06,18.7,25.3,,00.0,0662.6,31.0
2021-09-10T01:56:00Z,00000200,01000000,0000.64,0000.32,0000.05,0000.46,0000.11,-000.22,0000.30,0000.23,0000.18,18.6,25.3,,00.0,0662.5,31.0
2021-09-10T01:57:00Z,00000200,41000000,,,,,,,0000.66,0000.46,0000.49,18.6,25.3,,00.0,0662.5,31.0
2021-09-10T01:58:00Z,00000200,61000000,,,,,,,-000.01,0000.13,-000.30,18.2,25.4,,00.0,0661.6,31.0
2021-09-10T01:59:00Z,00000200,21000000,,,,,,,0000.45,0000.29,0000.37,18.2,25.5,,00.0,0661.6,31.0
